{"data":{"norad_id":52271,"epoch":"2026-09-19T15:39:52.298496Z","epoch_age_seconds":132694,"freshness":"FRESH","line1":"1 52271U 22041L   26262.65268864  .00000572  00000+0  28086-4 0  9990","line2":"2 52271  53.1613 311.5515 0001342  81.7961 278.3194 15.34386157243737","mean_motion":15.34386157,"eccentricity":0.0001342,"inclination_deg":53.1613,"raan_deg":311.5515,"arg_perigee_deg":81.7961,"mean_anomaly_deg":278.3194,"bstar":2.8086e-5,"rev_number":24373,"period_min":93.848604761624,"perigee_km":461.82633854787,"apogee_km":463.66243111156,"semimajor_km":6840.8813848297,"source":"CELESTRAK","updated_at":"2026-09-20T09:00:40.012784Z"}}